Location: Saint Mary
(48.7436°N, 113.4291°W)
Time: 19:58:24
(UTC+00:00)

BlueWalker 3 - Visible Passes

Search period start: 12 December 2025 00:00
Search period end: 22 December 2025 00:00
Orbit: 455 x 462 km, 53.2° (Epoch: 11 December)

Date Brightness Start Highest point End Pass type
(mag) Time Alt. Az. Time Alt. Az. Time Alt. Az.
12 Dec 3.9 00:08:12 10° WNW 00:11:27 31° SW 00:14:42 10° SSE visible
19 Dec 4.1 14:35:41 10° SSW 14:38:47 28° SE 14:41:55 10° E visible
20 Dec 4.3 14:00:58 10° S 14:03:50 23° SE 14:06:43 10° E visible
21 Dec 4.6 13:26:20 10° S 13:28:53 18° SE 13:31:26 10° E visible
